Weather History for Monroe, MI

Change the Weather History Date:

Wednesday, April 10, 2013

  Actual Average Record
Temperature  
Mean Temperature 46 °F -  
Max Temperature 51 °F 51 °F 82 °F (2011)
Min Temperature 42 °F 33 °F 20 °F (1989)
Degree Days  
Heating Degree Days 18    
Moisture  
Dew Point 44 °F    
Average Humidity 94    
Maximum Humidity 100    
Minimum Humidity 82    
Precipitation  
Precipitation 0.00 in - - ()
Sea Level Pressure  
Sea Level Pressure 29.91 in    
Wind  
Wind Speed 7 mph (NE)    
Max Wind Speed 15 mph    
Max Gust Speed 20 mph    
Visibility 4 miles    
Events Rain    
Averages and records for this station are not official NWS values.
T = Trace of Precipitation, MM = Missing Value Source: NWS Daily Summary

Daily Weather History Graph

Daily Weather History Graph

Search for Another Location

Airport:

Trip Planner

Search our weather history database for the weather conditions in past years. The results will help you decide how hot, cold, wet, or windy it might be!

Date:

Astronomy

Apr. 10, 2013 Rise Set
Actual Time 7:01 AM EDT 8:09 PM EDT
Civil Twilight 6:32 AM EDT 8:38 PM EDT
Nautical Twilight 5:58 AM EDT 9:12 PM EDT
Astronomical Twilight 5:22 AM EDT 9:48 PM EDT
Moon 6:56 AM EDT (4/10) 8:45 PM EDT (4/10)
Length of Visible Light 14h 05m
Length of Day
13h 08m
New Moon, 0% of the Moon is Illuminated
Apr 10
New Moon
Apr 18
First Quarter
Apr 25
Full
May 2
Last Quarter
May 9
New

Hourly Weather History & Observations

Time (EDT) Temp. Windchill Dew Point Humidity Pressure Visibility Wind Dir Wind Speed Gust Speed Precip Events Conditions
12:16 AM 50.0 °F - 46.4 °F 87% 29.94 in 7.0 mi ENE 4.6 mph - N/A   Overcast
12:36 AM 51.8 °F - 46.4 °F 82% 29.94 in 7.0 mi NE 5.8 mph - N/A   Overcast
12:56 AM 51.8 °F - 46.4 °F 82% 29.95 in 7.0 mi NE 4.6 mph - N/A   Overcast
1:11 AM 51.8 °F - 46.4 °F 82% 29.96 in 7.0 mi Calm Calm - N/A   Overcast
1:31 AM 50.0 °F - 46.4 °F 87% 29.95 in 7.0 mi NE 4.6 mph - N/A   Overcast
1:52 AM 50.0 °F - 46.4 °F 87% 29.96 in 4.0 mi NNE 6.9 mph - N/A   Overcast
2:12 AM 48.2 °F - 44.6 °F 87% 29.95 in 7.0 mi NNE 9.2 mph - N/A   Overcast
2:32 AM 48.2 °F - 44.6 °F 87% 29.95 in 7.0 mi NNE 6.9 mph - N/A Rain Rain
2:52 AM 46.4 °F 44.3 °F 44.6 °F 93% 29.95 in 10.0 mi NNE 4.6 mph - N/A   Overcast
3:12 AM 46.4 °F 42.9 °F 44.6 °F 93% 29.94 in 10.0 mi NNE 6.9 mph - N/A   Overcast
3:32 AM 46.4 °F 43.5 °F 44.6 °F 93% 29.94 in 10.0 mi NE 5.8 mph - N/A   Overcast
3:52 AM 46.4 °F 44.3 °F 44.6 °F 93% 29.93 in 7.0 mi ENE 4.6 mph - N/A   Overcast
4:12 AM 46.4 °F 44.3 °F 44.6 °F 93% 29.93 in 7.0 mi ENE 4.6 mph - N/A   Overcast
4:35 AM 46.4 °F 43.5 °F 44.6 °F 93% 29.91 in 7.0 mi ENE 5.8 mph - N/A Rain Light Rain
7:35 AM 44.6 °F 42.2 °F 44.6 °F 100% 29.90 in 1.5 mi ENE 4.6 mph - N/A   Overcast
7:55 AM 44.6 °F 38.8 °F 44.6 °F 100% 29.92 in 1.5 mi NNE 11.5 mph - N/A   Overcast
8:04 AM 44.6 °F 40.2 °F 44.6 °F 100% 29.93 in 1.5 mi North 8.1 mph - N/A   Overcast
8:12 AM 44.6 °F 40.7 °F 44.6 °F 100% 29.93 in 1.2 mi NNE 6.9 mph - N/A   Overcast
8:33 AM 44.6 °F 41.4 °F 44.6 °F 100% 29.93 in 1.5 mi NNE 5.8 mph - N/A   Overcast
8:53 AM 44.6 °F 39.2 °F 44.6 °F 100% 29.91 in 0.8 mi NE 10.4 mph - N/A   Overcast
9:13 AM 44.6 °F 39.7 °F 44.6 °F 100% 29.91 in 1.0 mi NE 9.2 mph - N/A   Overcast
9:33 AM 44.6 °F 39.7 °F 44.6 °F 100% 29.91 in 1.2 mi NNE 9.2 mph - N/A   Overcast
9:53 AM 44.6 °F 39.7 °F 42.8 °F 93% 29.92 in 1.8 mi NE 9.2 mph - N/A   Overcast
10:13 AM 44.6 °F 40.2 °F 42.8 °F 93% 29.91 in 2.0 mi NE 8.1 mph - N/A   Overcast
10:34 AM 44.6 °F 39.7 °F 42.8 °F 93% 29.90 in 2.0 mi NE 9.2 mph - N/A   Overcast
10:54 AM 44.6 °F 40.7 °F 42.8 °F 93% 29.91 in 1.5 mi NE 6.9 mph - N/A   Overcast
11:14 AM 44.6 °F 40.7 °F 44.6 °F 100% 29.91 in 1.5 mi East 6.9 mph - N/A   Overcast
11:34 AM 44.6 °F 40.2 °F 44.6 °F 100% 29.89 in 1.8 mi East 8.1 mph - N/A   Overcast
11:54 AM 46.4 °F 42.9 °F 44.6 °F 93% 29.89 in 2.0 mi ENE 6.9 mph - N/A   Overcast
12:14 PM 46.4 °F 41.9 °F 44.6 °F 93% 29.88 in 2.0 mi ESE 9.2 mph - N/A Rain Light Rain
12:34 PM 46.4 °F 42.9 °F 44.6 °F 93% 29.90 in 2.0 mi East 6.9 mph - N/A   Overcast
12:54 PM 46.4 °F 41.1 °F 44.6 °F 93% 29.94 in 1.8 mi North 11.5 mph - N/A Rain Light Rain
1:14 PM 46.4 °F 41.5 °F 44.6 °F 93% 29.94 in 1.5 mi North 10.4 mph - N/A   Heavy Drizzle
1:34 PM 46.4 °F 42.4 °F 44.6 °F 93% 29.91 in 2.0 mi NNE 8.1 mph - N/A Rain Rain
1:55 PM 46.4 °F 41.5 °F 46.4 °F 100% 29.85 in 2.0 mi East 10.4 mph 16.1 mph N/A   Overcast
2:15 PM 46.4 °F 43.5 °F 44.6 °F 93% 29.85 in 5.0 mi East 5.8 mph - N/A   Overcast
2:55 PM 46.4 °F 43.5 °F 44.6 °F 93% 29.82 in 0.2 mi ESE 5.8 mph - N/A Rain Rain
3:15 PM 46.4 °F 43.5 °F 44.6 °F 93% 29.83 in 3.0 mi East 5.8 mph - N/A Rain Light Rain
3:35 PM 46.4 °F 42.4 °F 44.6 °F 93% 29.85 in 4.0 mi NNE 8.1 mph - N/A   Overcast
3:55 PM 46.4 °F 45.2 °F 44.6 °F 93% 29.87 in 4.0 mi North 3.5 mph - N/A   Overcast
4:15 PM 46.4 °F 41.5 °F 46.4 °F 100% 29.89 in 4.0 mi North 10.4 mph - N/A   Drizzle
4:35 PM 46.4 °F 41.9 °F 44.6 °F 93% 29.89 in 4.0 mi North 9.2 mph - N/A   Drizzle
4:56 PM 46.4 °F 40.1 °F 46.4 °F 100% 29.90 in 2.5 mi North 15.0 mph - N/A   Overcast
5:16 PM 46.4 °F 40.7 °F 44.6 °F 93% 29.90 in 3.0 mi North 12.7 mph 18.4 mph N/A   Overcast
5:36 PM 46.4 °F 42.9 °F 44.6 °F 93% 29.92 in 5.0 mi North 6.9 mph - N/A   Overcast
5:56 PM 46.4 °F 41.9 °F 44.6 °F 93% 29.91 in 5.0 mi North 9.2 mph - N/A   Overcast
6:16 PM 46.4 °F 42.4 °F 44.6 °F 93% 29.90 in 10.0 mi NNE 8.1 mph 17.3 mph N/A   Overcast
6:36 PM 46.4 °F 41.9 °F 44.6 °F 93% 29.90 in 7.0 mi NE 9.2 mph - N/A Rain Rain
6:56 PM 44.6 °F 40.7 °F 42.8 °F 93% 29.92 in 7.0 mi NNE 6.9 mph - N/A Rain Rain
7:11 PM 44.6 °F 41.4 °F 42.8 °F 93% 29.92 in 7.0 mi East 5.8 mph - N/A Rain Light Rain
7:31 PM 44.6 °F 39.7 °F 42.8 °F 93% 29.90 in 5.0 mi NE 9.2 mph - N/A Rain Light Rain
7:51 PM 44.6 °F 38.1 °F 42.8 °F 93% 29.91 in 7.0 mi NE 13.8 mph 19.6 mph N/A   Overcast
8:12 PM 44.6 °F 39.7 °F 42.8 °F 93% 29.93 in 7.0 mi NE 9.2 mph 16.1 mph N/A   Overcast
8:32 PM 44.6 °F 39.7 °F 42.8 °F 93% 29.92 in 7.0 mi NE 9.2 mph - N/A   Overcast
8:52 PM 44.6 °F 40.7 °F 42.8 °F 93% 29.94 in 7.0 mi NE 6.9 mph - N/A   Overcast
9:12 PM 44.6 °F 40.7 °F 42.8 °F 93% 29.94 in 7.0 mi NE 6.9 mph - N/A   Overcast
9:32 PM 44.6 °F 41.4 °F 42.8 °F 93% 29.93 in 7.0 mi NE 5.8 mph - N/A   Light Drizzle
9:52 PM 44.6 °F 40.2 °F 42.8 °F 93% 29.93 in 7.0 mi NE 8.1 mph - N/A   Overcast
10:12 PM 44.6 °F 41.4 °F 42.8 °F 93% 29.94 in 7.0 mi East 5.8 mph - N/A   Overcast
10:32 PM 44.6 °F 40.2 °F 42.8 °F 93% 29.92 in 5.0 mi ENE 8.1 mph - N/A   Overcast
10:52 PM 42.8 °F 37.5 °F 42.8 °F 100% 29.93 in 3.0 mi ENE 9.2 mph - N/A   Overcast
11:12 PM 42.8 °F 37.5 °F 42.8 °F 100% 29.92 in 2.0 mi ENE 9.2 mph 18.4 mph N/A   Overcast
11:33 PM 42.8 °F 38.0 °F 41.0 °F 93% 29.94 in 2.0 mi ENE 8.1 mph - N/A   Overcast
11:53 PM 42.8 °F 38.0 °F 42.8 °F 100% 29.94 in 2.0 mi NE 8.1 mph - N/A   Overcast